Theta_e
304 304 306 306 307 296 298 300 296 299 302 301 296 299 299 295 292 290 295 298 298 302 305 308 316 316 314 319 321 322 321 323 324 326 328 330 333 336 338 340 341 344 346 347 347 347 348 349 349 350 350 351 351 351 350 350 350 347 343 341 338 337 336
304 306 307 307 308 304 298 295 298 301 305 301 297 290 292 290 287 289 294 295 294 297 294 307 315 314 316 317 319 321 321 322 323 325 327 329 331 335 338 340 342 344 346 347 347 348 349 349 350 350 351 352 352 352 351 350 350 346 343 341 338 336 335
304 305 304 303 306 308 306 303 303 301 294 295 294 293 289 287 288 287 291 294 295 296 297 304 308 313 314 316 318 319 319 321 322 324 326 328 330 334 336 338 340 343 345 346 347 348 349 350 351 351 352 352 352 352 351 351 349 348 344 342 340 338 336
304 306 302 297 301 304 305 303 301 304 300 294 294 295 293 293 287 288 288 291 295 300 298 305 306 313 315 316 317 318 320 321 323 324 326 326 328 332 335 337 339 342 345 347 347 348 348 349 350 351 351 352 351 351 351 350 350 348 344 342 340 337 336
305 298 299 300 300 297 298 300 297 300 304 299 298 299 294 293 286 285 285 289 291 296 303 307 308 313 317 318 318 319 320 321 323 324 325 326 327 331 335 337 338 340 344 346 348 349 349 350 351 351 351 351 351 351 350 349 347 346 343 342 340 338 337
295 295 300 303 302 303 300 300 297 298 295 296 293 292 296 296 292 285 286 289 290 299 311 311 310 316 319 320 320 320 320 322 322 324 325 326 327 330 334 337 338 340 342 345 348 349 349 349 349 350 350 350 350 350 350 349 348 345 343 341 340 339 337
297 300 303 305 305 305 303 303 300 301 297 296 292 288 291 294 296 296 292 290 293 301 310 312 313 317 320 320 321 320 321 322 323 324 326 327 328 329 332 335 338 339 342 344 346 348 348 348 348 349 349 349 349 349 349 348 347 345 344 342 341 339 337
300 303 303 303 305 304 300 301 301 300 298 299 296 294 294 295 294 293 292 291 288 298 310 313 314 316 319 320 321 321 322 322 323 324 325 326 326 328 331 334 337 339 341 344 345 346 347 347 347 347 348 349 349 349 349 348 346 345 344 342 340 339 337
293 298 299 300 301 302 298 296 299 301 300 301 299 298 296 296 294 294 291 288 291 301 312 312 313 315 318 319 321 322 321 322 324 324 325 326 327 328 330 331 333 336 339 341 344 346 346 347 347 347 348 348 348 348 348 347 346 345 344 341 340 338 337
286 287 288 289 292 296 297 300 300 301 301 299 299 296 296 291 293 295 291 289 292 300 305 310 311 313 315 318 320 321 322 322 323 324 324 325 327 328 329 331 332 333 337 340 343 344 346 347 347 347 347 348 348 348 347 347 346 344 343 341 340 338 337
291 293 291 297 300 296 298 298 300 300 302 302 301 296 292 293 288 294 288 296 297 302 307 306 309 311 313 314 313 317 319 319 321 323 324 325 326 328 329 331 332 333 334 338 341 344 346 346 346 347 347 347 347 347 346 346 345 343 342 340 339 338 337
299 298 298 299 302 299 298 298 299 300 300 301 299 298 297 295 294 291 292 293 301 302 305 307 308 310 312 314 314 316 318 319 319 321 323 332 326 327 329 330 331 331 333 336 339 341 343 345 346 346 346 347 346 346 345 345 344 343 342 340 339 339 338
300 301 301 301 302 300 299 300 300 299 300 299 299 300 299 299 299 295 295 296 302 304 307 310 310 312 313 313 314 316 319 319 319 320 322 324 325 326 327 328 329 330 331 333 337 340 342 344 344 344 345 345 346 346 345 344 343 342 341 340 339 338 338
299 299 301 302 301 301 301 299 300 301 300 299 301 301 300 301 299 301 301 299 303 306 309 311 313 314 315 315 316 317 317 319 320 322 322 324 325 326 327 328 328 330 331 333 335 338 340 342 343 343 344 344 344 344 344 344 343 342 341 339 339 338 338
297 299 300 300 300 300 300 300 300 300 300 300 301 301 301 303 302 302 300 301 303 307 309 313 314 311 313 314 316 317 318 319 322 323 323 324 325 326 327 328 328 329 331 333 334 336 339 341 342 343 344 344 344 344 344 343 343 342 341 339 339 338 338
294 298 299 299 300 300 299 300 301 300 297 297 297 298 299 301 301 300 299 298 299 306 308 310 307 310 312 313 315 316 317 320 323 323 324 325 326 327 328 329 329 329 330 332 333 336 338 340 342 343 343 343 343 343 343 343 343 342 340 339 339 339 338
292 297 299 299 299 299 297 298 300 301 299 300 303 308 310 307 303 299 296 298 305 305 311 308 307 309 311 313 315 316 317 319 323 323 324 326 327 328 329 330 330 330 331 332 334 336 338 340 342 343 344 343 342 342 341 342 342 341 340 339 339 339 338
291 296 298 298 296 291 290 299 301 304 304 305 304 304 306 309 307 301 303 305 306 308 309 308 306 308 311 315 318 320 320 319 320 321 322 325 328 329 331 331 331 331 331 331 333 335 338 341 343 344 343 343 343 342 341 341 340 340 339 338 338 338 337
291 295 298 295 290 291 303 309 309 309 308 309 307 308 309 308 310 312 310 308 307 309 311 311 310 311 313 315 316 317 319 321 321 321 320 322 327 329 331 331 333 332 332 332 332 332 334 338 341 341 341 343 343 338 337 336 336 337 337 336 336 336 336
292 293 293 290 291 301 310 310 309 314 311 309 309 306 307 308 309 309 308 308 308 309 310 311 312 313 314 315 316 317 319 320 320 320 321 323 326 326 328 330 331 333 333 333 333 333 336 337 339 341 342 342 341 336 335 335 334 334 335 335 335 335 335
293 290 290 293 302 305 305 306 308 307 305 306 306 300 304 310 310 309 307 309 310 311 312 313 314 315 316 314 314 316 318 319 321 324 324 325 325 326 328 330 331 334 335 335 335 335 335 336 338 340 341 340 337 334 333 334 334 334 334 333 333 334 335
294 290 289 295 293 292 298 307 311 313 310 309 311 307 305 310 313 313 312 311 311 312 312 314 315 317 314 310 311 315 316 319 321 321 324 322 323 323 325 326 325 330 332 335 337 337 336 336 337 337 338 338 334 332 332 333 333 333 333 332 332 334 335
296 292 289 288 289 294 302 305 310 313 313 310 310 307 300 310 313 313 312 311 312 313 313 313 314 312 307 306 310 315 315 318 322 321 323 325 326 327 327 327 324 331 335 336 337 338 337 336 337 337 336 334 333 331 332 332 333 331 330 330 331 333 332
296 293 290 292 296 300 306 309 312 313 315 312 306 296 294 309 314 314 314 313 311 310 312 313 311 307 304 305 313 317 318 321 320 322 324 325 326 330 335 337 332 334 337 337 334 335 336 337 336 335 334 333 333 332 331 331 331 330 330 331 331 331 331
298 298 295 296 301 308 310 310 311 312 314 305 296 290 299 311 313 313 314 313 313 313 312 313 310 311 312 315 317 317 320 320 320 320 323 326 328 332 336 336 340 335 335 336 336 336 337 336 335 334 333 332 332 332 331 329 330 331 330 330 330 331 332
296 296 294 295 299 306 310 312 311 313 305 295 297 306 310 313 313 314 314 313 313 314 313 312 312 313 316 318 318 320 321 320 319 320 321 329 335 337 338 336 332 330 330 330 330 332 331 334 335 334 333 332 331 330 328 327 329 330 330 330 330 331 332
299 296 294 290 291 301 312 310 310 312 301 301 308 313 314 318 315 316 315 315 315 316 314 315 315 316 317 318 318 320 321 321 322 323 323 321 327 331 331 331 331 330 327 328 329 331 332 332 332 332 331 331 330 330 328 328 330 331 331 330 331 332 333
294 294 291 291 299 305 312 310 306 308 310 313 314 314 312 315 316 316 316 317 317 318 318 317 317 318 318 320 320 320 320 321 320 321 322 324 328 331 335 334 331 330 326 327 328 328 330 330 330 330 331 331 331 327 324 328 331 332 332 332 332 331 331
300 298 300 305 306 310 311 313 311 311 313 314 314 313 312 311 312 314 314 314 316 317 317 318 319 318 319 319 321 320 320 320 320 319 320 321 323 328 331 332 331 328 327 326 328 327 328 329 329 329 330 329 328 326 327 330 331 331 331 332 332 331 330
311 310 310 314 310 309 310 312 313 313 313 314 314 313 311 311 312 313 312 313 313 313 314 313 314 318 318 318 320 322 322 322 323 324 321 320 321 326 329 329 329 326 326 327 327 326 326 327 327 328 329 329 327 326 329 331 330 331 331 331 330 330 330
300 297 308 311 310 310 310 311 312 314 314 313 314 313 312 312 313 313 313 313 313 314 314 312 312 313 315 316 318 321 322 322 323 324 323 321 321 322 324 328 330 326 327 326 327 327 326 326 326 327 328 329 329 329 329 330 330 330 329 329 329 327 327
300 303 310 314 314 310 312 310 310 310 311 312 314 315 318 317 317 315 315 316 315 317 314 313 312 312 313 313 315 319 320 321 321 321 323 322 322 322 324 327 327 325 325 326 327 326 325 325 326 326 326 326 325 323 323 325 326 327 327 324 322 322 323
309 312 313 314 311 310 311 313 312 311 311 311 311 312 313 313 313 314 315 316 314 315 314 313 312 311 312 313 315 318 319 320 321 321 323 323 323 322 325 325 325 324 324 325 325 325 325 325 325 323 322 322 324 324 324 325 324 323 323 326 325 324 325
302 303 305 311 303 301 305 310 312 311 312 312 313 314 313 314 314 313 313 313 314 313 314 313 312 311 312 313 315 318 320 320 322 323 324 325 326 325 324 326 326 325 325 325 325 325 325 324 321 319 319 319 321 323 325 325 325 325 325 324 324 324 323
302 310 311 309 308 307 308 310 311 311 312 311 311 310 311 312 314 313 312 310 310 310 311 312 311 311 312 313 316 318 321 322 324 325 325 326 326 324 324 323 321 322 324 327 326 326 324 321 319 319 318 318 318 319 321 322 322 321 321 322 323 323 324
314 316 313 311 306 304 306 308 309 310 311 311 310 310 310 310 309 310 309 309 308 308 308 310 311 311 313 313 314 315 318 321 323 324 326 327 325 325 325 323 321 323 325 326 326 325 322 320 319 319 319 319 320 321 322 322 321 320 320 321 320 320 322
306 312 308 308 308 307 308 309 309 310 313 313 311 311 309 309 310 310 310 309 309 309 309 310 311 312 313 312 313 314 316 320 324 327 329 327 328 324 323 322 321 323 324 325 325 324 322 320 319 320 319 320 322 323 323 322 322 321 320 320 319 318 318
Wind_Speed
8 8 6 6 9 8 3 6 7 8 8 9 2 2 0 3 2 5 3 3 4 7 5 3 7 1 4 11 12 12 13 15 12 13 14 15 15 15 15 15 14 15 14 14 15 15 15 14 13 15 17 17 19 17 16 17 16 13 14 13 12 11 11
9 9 9 9 11 7 5 5 9 2 2 4 6 6 0 1 5 5 4 9 3 4 6 2 1 1 3 10 14 17 16 14 15 15 15 16 16 16 17 17 16 16 17 18 17 16 17 17 18 18 19 18 17 17 18 19 16 15 12 12 12 11 10
7 5 4 8 7 11 16 10 8 6 4 5 2 3 2 1 2 2 2 2 3 8 6 1 6 9 11 12 11 10 12 15 17 15 16 15 15 13 13 13 12 13 14 15 16 17 18 18 18 19 18 17 14 14 15 15 18 18 18 16 13 10 10
5 3 8 14 12 3 2 6 4 1 6 4 5 7 4 5 4 2 5 1 6 6 5 10 7 11 8 7 8 13 17 19 17 16 15 15 14 13 14 13 14 16 17 18 19 19 18 18 17 16 16 14 16 16 16 15 13 11 11 11 12 13 13
2 9 6 13 12 7 4 6 4 2 0 3 5 1 5 6 5 5 3 3 4 7 8 9 7 8 12 16 16 14 13 14 16 15 16 15 15 14 14 15 15 16 16 17 17 18 18 17 17 16 15 17 18 15 14 15 15 15 14 13 12 13 12
5 6 6 8 9 12 10 10 9 9 7 4 6 9 1 2 4 4 3 7 6 9 4 8 7 8 12 14 16 15 14 15 14 14 15 16 15 15 16 16 16 15 16 16 17 16 14 14 14 15 14 13 13 14 15 16 15 14 15 14 14 12 10
9 9 9 5 11 14 12 13 10 10 5 6 5 5 4 1 1 5 4 2 7 8 5 6 5 7 11 12 10 11 13 15 15 15 16 15 17 17 16 15 14 14 15 17 17 18 18 18 17 16 15 15 16 18 17 15 16 17 16 15 12 11 11
7 8 5 5 4 3 4 6 4 9 8 8 8 7 8 8 2 2 1 2 4 1 2 3 3 5 6 7 11 15 13 12 13 14 13 14 12 12 14 14 13 15 15 14 13 14 15 15 15 16 17 17 16 15 15 15 17 17 14 12 12 12 11
6 8 8 5 2 5 3 4 5 7 6 8 4 6 2 4 7 8 8 8 3 4 4 0 4 7 10 11 11 12 13 10 13 14 13 12 13 13 12 13 14 13 11 12 14 16 17 16 16 16 16 16 15 16 15 16 17 16 14 11 12 13 13
10 10 11 9 8 6 2 2 6 8 11 8 6 5 2 5 2 4 4 3 8 7 5 1 3 5 6 7 8 6 8 11 13 11 11 11 12 13 15 16 13 13 14 14 15 16 14 16 17 16 16 17 17 16 17 16 15 14 14 12 13 14 14
11 10 7 6 4 3 7 4 10 9 9 13 8 6 7 9 4 6 7 8 5 3 2 3 7 6 9 10 7 10 10 8 8 10 11 12 13 15 16 17 16 12 10 14 15 16 17 16 15 16 17 17 16 15 16 15 14 14 13 13 13 14 15
15 11 11 7 6 7 8 7 8 9 11 11 9 10 9 7 11 7 5 5 6 10 7 7 8 9 8 8 11 11 9 10 11 11 11 11 10 11 12 13 14 14 15 15 15 16 15 15 14 12 12 13 15 16 16 16 14 13 12 14 14 15 15
14 14 14 8 2 3 5 9 11 12 11 10 13 11 8 12 11 12 7 8 8 9 11 13 14 15 15 13 14 18 16 9 6 7 9 11 13 14 15 16 13 12 13 12 14 14 14 14 14 15 13 13 12 11 11 11 12 14 14 14 15 16 15
13 12 15 15 13 8 5 5 9 14 15 15 16 13 9 16 7 11 10 12 14 10 12 14 16 15 16 13 4 4 5 10 11 10 11 13 15 15 17 15 13 12 14 13 13 14 13 14 16 13 13 13 13 14 14 14 14 14 12 14 15 16 16
10 11 13 12 11 13 13 10 9 11 11 14 15 11 7 9 4 2 5 11 12 9 7 14 11 3 6 7 7 12 11 8 10 12 13 15 15 15 13 11 12 11 11 11 9 9 12 12 14 15 14 15 14 14 14 13 14 14 15 15 15 15 16
6 8 12 13 9 7 9 12 13 10 6 6 4 5 6 8 9 5 7 4 7 10 3 1 3 7 9 11 10 9 8 10 12 13 14 13 12 12 12 11 8 7 7 7 9 12 12 12 12 12 13 13 13 14 13 14 14 11 13 15 16 15 11
7 8 9 11 6 2 6 10 11 10 5 5 4 2 4 1 4 7 7 9 10 6 3 4 3 7 11 11 10 8 6 9 12 13 12 11 11 11 9 9 9 9 10 11 11 10 8 10 12 13 13 11 12 14 10 10 9 10 14 15 14 11 9
7 6 7 7 6 9 7 4 4 7 8 10 9 2 0 1 4 5 6 7 3 5 8 10 6 8 12 16 15 11 13 12 6 6 7 9 9 7 6 7 7 8 6 5 7 9 10 10 11 9 6 10 9 6 10 12 11 12 12 10 6 6 7
6 4 9 8 9 6 3 5 4 6 9 16 15 6 4 4 2 1 0 2 2 8 13 16 15 9 1 3 3 2 4 8 11 10 7 6 6 8 8 7 7 7 10 9 8 6 7 9 7 5 7 9 8 8 8 7 7 7 7 6 6 8 10
4 2 6 8 4 2 2 1 4 2 10 7 13 10 7 7 7 1 2 4 3 5 3 3 6 8 6 5 5 4 3 3 6 7 8 8 8 9 9 11 10 10 10 11 12 13 10 6 7 8 11 9 7 7 5 8 6 6 6 7 8 9 11
7 5 4 3 3 3 2 3 3 4 2 3 11 5 3 3 5 4 3 3 4 4 1 5 8 9 8 7 5 3 1 1 2 8 11 10 10 9 9 9 10 11 9 9 9 4 3 6 7 10 6 6 8 8 8 7 8 8 9 10 11 12 14
4 7 5 2 2 4 3 2 4 1 5 8 3 12 0 3 9 5 2 7 7 7 4 2 5 10 13 8 3 5 7 2 3 2 1 4 4 4 4 3 1 3 4 5 5 7 6 6 6 4 5 7 6 6 6 5 6 7 9 10 11 12 14
4 3 7 3 3 2 2 8 9 10 8 6 7 8 2 5 10 8 5 6 5 10 8 3 2 9 9 5 1 6 6 1 0 4 3 2 1 4 6 9 8 7 7 7 6 5 6 6 6 7 8 9 8 8 8 7 7 9 9 10 13 14 11
4 3 4 2 1 1 4 9 11 12 10 3 7 7 3 8 11 6 8 8 6 6 7 10 12 9 6 6 6 6 3 1 4 5 5 4 4 3 4 4 2 6 5 6 4 6 8 9 8 9 9 10 10 10 10 9 10 12 15 17 11 10 12
7 7 1 2 2 2 5 8 12 12 5 7 9 6 2 4 6 5 11 10 8 10 11 10 11 3 5 3 2 3 4 11 10 8 5 3 4 5 4 3 4 5 2 5 10 12 10 9 9 9 9 9 10 10 9 10 11 9 9 8 11 13 13
4 2 5 0 1 3 3 11 9 6 3 6 7 2 1 2 5 5 8 10 9 12 11 9 7 2 1 0 2 9 10 5 5 5 5 5 5 4 3 5 4 3 1 0 1 2 3 8 9 9 10 10 9 8 4 7 9 5 3 3 5 7 9
2 4 6 2 2 3 8 14 6 7 7 3 3 5 5 3 4 8 9 8 7 9 11 8 7 6 7 9 8 7 8 7 7 6 5 5 4 2 3 3 2 3 1 2 1 5 5 4 3 2 0 2 2 7 10 7 8 11 10 8 6 4 6
4 4 3 2 3 7 13 3 7 3 3 6 6 7 7 4 5 7 9 9 6 7 10 9 10 8 8 8 8 8 8 8 7 6 6 5 4 3 1 2 3 2 2 5 4 3 3 4 4 3 4 5 7 10 8 6 9 9 9 9 10 6 5
2 3 4 2 2 4 6 10 9 7 8 8 4 8 6 5 6 3 9 8 7 6 7 11 10 11 9 7 5 7 5 6 6 7 6 7 5 2 0 1 2 4 5 5 6 6 4 5 4 6 7 9 8 7 4 8 9 10 8 7 8 8 8
5 8 4 1 3 2 3 8 7 11 9 8 6 7 9 5 4 5 8 6 8 9 7 11 9 9 6 9 9 8 8 8 7 6 7 7 6 4 2 2 2 4 5 5 6 8 7 6 7 6 6 8 9 5 5 8 9 10 10 11 10 10 9
8 2 3 3 2 4 4 11 9 10 9 8 7 8 6 4 4 4 4 5 7 9 9 10 8 8 7 9 7 5 6 8 7 7 6 5 6 8 9 3 2 4 6 7 7 7 8 5 8 8 9 9 9 8 10 10 10 11 11 12 11 10 9
6 8 5 1 4 4 6 4 9 11 8 9 7 7 8 7 7 4 4 5 10 7 8 5 8 8 8 9 8 7 5 4 4 5 5 5 6 3 1 1 1 4 6 6 7 7 8 6 7 9 11 11 12 13 12 11 11 12 12 12 12 11 10
6 10 5 4 4 10 9 9 8 6 8 10 10 9 9 8 10 10 11 11 9 9 7 5 7 9 7 5 4 4 3 4 4 5 5 3 4 6 3 3 3 5 6 7 6 8 7 6 9 11 11 11 12 13 12 12 14 14 12 11 10 8 7
5 5 5 5 7 6 3 6 3 3 5 10 10 11 12 10 9 7 7 6 6 7 7 7 7 8 5 5 4 3 1 1 2 4 6 6 6 5 2 1 5 5 6 10 10 10 8 8 11 12 12 10 9 9 10 10 12 14 12 11 10 9 9
6 3 4 8 11 7 2 2 3 4 5 11 12 11 11 10 6 4 7 8 10 10 9 9 10 9 9 9 8 8 6 4 4 6 5 7 6 1 0 3 4 7 8 8 10 10 10 10 11 12 11 11 10 10 10 9 12 13 12 11 10 9 9
7 3 4 6 9 10 4 4 5 5 4 10 11 10 10 10 9 8 8 7 8 6 7 8 7 6 9 9 10 12 12 9 6 3 3 4 2 2 3 4 6 8 9 10 12 13 10 11 11 11 11 10 10 10 11 11 9 10 9 10 10 10 10
9 3 4 5 9 10 8 8 7 6 4 7 10 9 10 10 8 7 7 5 5 7 6 7 7 7 8 9 9 9 8 9 9 8 6 3 1 2 3 5 8 10 10 9 9 10 10 9 9 8 7 5 4 5 4 5 8 9 8 6 7 7 5
Wind_Direction
211 213 173 206 149 210 219 117 202 210 165 155 98 30 275 86 55 252 191 307 304 315 323 317 341 87 189 175 189 188 190 190 178 186 191 195 194 193 192 196 196 193 191 193 195 195 197 196 194 195 195 194 196 194 194 199 200 193 191 188 186 186 176
238 212 200 206 192 157 124 183 224 181 108 109 151 209 25 95 167 251 144 198 232 136 242 305 2 113 191 176 184 194 186 178 183 191 192 194 195 195 194 196 195 191 190 192 194 197 196 195 197 199 200 199 198 196 197 197 196 192 189 185 188 185 178
218 208 192 269 249 193 210 219 171 159 225 247 292 111 205 141 220 247 260 231 260 182 235 218 222 195 195 196 188 174 174 183 191 191 196 198 197 192 193 195 193 194 194 195 197 199 199 200 201 201 201 198 197 201 202 199 197 194 189 190 182 172 173
185 182 168 227 236 273 317 77 160 151 125 168 151 198 174 142 232 106 284 80 220 208 225 205 217 193 177 159 169 190 186 188 188 192 191 194 192 193 193 193 195 196 195 196 196 199 198 201 201 205 202 200 202 202 199 200 202 199 193 188 176 179 183
189 211 195 215 207 197 201 199 204 192 359 228 111 60 138 178 171 183 185 268 277 254 213 183 212 169 169 171 184 187 187 191 195 190 189 192 192 193 194 195 197 196 196 199 201 203 204 201 202 200 198 200 204 199 199 198 195 195 194 189 182 189 179
218 248 231 197 181 183 187 190 203 176 137 130 183 244 26 107 128 199 150 242 263 265 192 200 203 184 175 187 180 182 182 189 192 195 197 190 192 197 195 197 198 195 197 198 203 204 203 204 203 203 205 205 204 201 201 198 197 197 194 189 189 184 180
232 232 247 220 191 182 189 181 212 178 158 129 138 188 238 24 286 116 147 158 271 242 203 197 198 164 187 179 177 181 186 190 192 197 196 194 194 193 196 200 199 192 196 200 200 197 200 200 201 201 201 202 203 203 201 197 196 200 196 190 183 176 178
280 272 267 270 247 207 198 240 190 156 182 174 171 170 184 175 177 113 46 203 253 283 288 259 214 190 159 165 176 185 193 191 192 195 194 196 198 204 203 201 195 196 199 198 199 202 203 204 203 201 203 205 205 203 200 198 201 201 194 185 180 178 177
261 290 315 306 344 145 199 196 189 195 173 170 143 108 90 169 212 173 148 216 267 272 333 299 132 150 160 174 202 196 185 189 193 195 195 194 196 196 201 206 204 199 193 193 200 203 204 204 204 203 203 204 203 202 198 199 203 198 191 181 177 180 180
210 219 215 219 247 218 223 251 179 182 172 154 129 164 147 189 261 135 162 241 250 277 324 221 163 163 196 204 190 191 197 190 190 193 194 194 191 197 202 208 206 199 197 198 202 204 204 207 206 203 202 203 204 201 201 200 198 191 190 182 180 179 182
214 215 210 240 139 111 188 222 190 197 191 178 167 117 135 196 198 177 224 178 217 277 264 221 208 183 191 200 187 194 202 202 203 196 191 190 192 197 201 207 209 202 198 202 204 204 208 207 204 205 204 205 202 201 202 198 196 192 188 183 182 183 186
211 203 210 209 179 190 198 186 211 197 190 184 158 162 203 160 116 219 256 199 159 224 225 226 219 215 211 205 198 200 204 193 181 189 197 195 197 203 208 213 210 203 202 203 204 208 210 210 211 213 212 208 204 201 199 197 192 189 187 186 185 188 188
217 210 225 217 172 210 223 199 188 196 194 187 184 200 182 145 189 204 231 174 189 218 208 208 208 198 201 198 202 205 199 168 168 179 184 191 199 204 209 215 209 207 207 207 207 207 209 209 208 209 207 208 208 209 209 202 197 196 190 187 189 191 190
220 218 222 234 233 246 238 243 226 196 185 190 193 199 166 177 189 197 186 172 202 200 208 208 211 205 198 203 175 87 144 188 183 179 186 195 201 204 209 210 208 208 210 209 209 207 209 208 210 206 207 207 206 205 204 199 198 199 183 195 195 194 192
228 220 218 230 231 229 248 240 229 232 202 194 197 186 174 194 211 195 156 177 215 242 216 208 213 146 61 79 154 187 190 174 179 183 192 199 204 207 207 207 209 209 210 213 212 211 215 212 210 209 207 207 205 207 207 203 203 197 191 197 199 197 196
243 218 210 220 217 225 237 248 246 225 173 192 212 192 190 164 199 173 103 169 255 261 230 71 110 159 164 174 184 190 193 193 186 189 195 197 202 201 202 202 197 202 208 209 209 213 214 213 213 212 213 210 207 209 205 207 207 196 201 203 201 200 185
228 230 189 190 173 159 257 253 241 229 187 162 144 90 89 231 140 124 169 217 218 230 121 133 155 168 191 192 187 191 205 198 190 190 192 196 196 197 189 185 192 195 200 206 210 215 215 214 213 216 212 211 212 211 203 216 208 204 209 207 203 190 175
225 220 153 137 131 205 231 235 197 165 159 142 115 72 313 214 140 192 194 242 209 129 162 176 190 174 190 192 203 195 183 173 181 194 197 193 189 182 182 184 187 197 194 197 208 211 215 218 218 220 212 216 221 192 211 218 202 211 211 212 194 166 145
221 182 126 139 198 219 243 336 284 105 93 100 107 112 48 16 41 92 155 314 273 204 181 187 187 188 92 50 101 107 131 161 166 175 181 180 167 174 177 190 201 198 196 201 205 208 218 216 204 183 198 208 194 192 210 215 215 210 197 174 154 154 152
76 105 168 189 226 232 323 358 352 59 111 115 85 45 21 15 343 35 59 317 282 282 278 93 125 125 131 88 63 92 96 132 155 150 174 180 175 175 186 182 197 193 196 198 197 207 212 189 191 193 209 197 189 196 177 199 190 182 169 159 154 149 154
162 170 168 186 133 73 8 8 24 11 311 113 115 115 21 3 334 309 148 89 51 28 357 137 126 123 100 85 46 34 105 175 218 171 171 171 185 179 184 182 190 194 189 193 204 190 173 192 192 210 196 160 175 177 184 184 172 166 151 159 166 166 168
123 124 94 107 53 128 255 227 276 263 274 281 169 107 241 341 354 349 57 108 94 73 45 60 150 119 96 96 82 5 353 331 214 333 117 157 165 166 169 188 135 153 174 171 167 171 168 181 194 160 153 172 174 182 186 175 158 149 156 165 172 171 175
38 47 121 169 121 248 215 293 308 312 320 342 283 77 352 345 351 347 49 43 69 108 115 98 48 94 104 107 261 305 325 343 114 118 110 103 171 213 188 178 175 177 180 173 165 148 149 172 181 168 162 157 163 181 187 169 144 144 165 168 178 180 158
83 131 81 90 207 108 334 306 312 312 321 333 72 90 253 320 343 338 50 48 40 44 60 74 60 81 76 3 329 326 305 113 83 91 88 59 43 27 14 12 110 137 129 106 112 149 176 191 177 166 162 163 176 187 191 167 160 171 180 186 167 114 125
54 69 69 62 13 313 312 312 314 319 320 67 85 150 225 320 334 348 79 74 77 76 63 67 84 76 138 151 284 318 12 52 41 45 65 102 110 91 63 52 58 98 128 152 169 186 192 181 175 168 162 164 185 193 183 178 190 178 170 153 143 149 142
82 90 83 25 215 217 295 317 315 298 47 60 121 201 243 341 9 4 60 77 67 76 74 80 87 102 356 341 20 38 35 46 50 48 65 81 76 76 94 79 62 80 106 359 285 212 190 183 178 169 164 175 189 181 134 60 58 99 90 72 88 99 121
51 51 74 29 53 277 347 317 349 15 89 196 183 104 23 3 33 65 52 54 53 69 84 84 96 82 56 51 45 42 39 30 27 20 33 57 76 88 88 80 111 128 192 249 303 6 14 18 21 15 29 164 80 75 82 91 90 99 104 93 73 82 103
115 54 96 179 221 281 316 11 92 333 82 130 106 107 89 30 47 53 68 44 44 56 76 75 67 58 56 41 35 43 30 23 14 14 5 5 19 19 360 114 141 121 101 76 90 91 61 31 38 54 92 94 84 79 80 104 107 99 99 112 115 119 150
117 167 178 233 254 263 310 79 96 89 69 68 75 84 86 90 52 44 69 60 39 41 57 62 57 52 42 54 42 52 22 13 5 357 341 344 334 319 9 69 76 73 94 105 98 89 95 83 66 77 86 95 96 104 137 118 117 118 112 110 123 147 162
79 58 68 39 335 340 36 59 87 94 77 55 52 72 80 50 56 61 85 75 62 49 38 60 47 54 47 45 29 26 19 13 2 349 342 349 342 334 332 83 80 90 90 95 99 95 82 92 100 100 105 108 103 119 131 124 115 112 112 108 112 123 132
79 81 324 15 357 342 36 84 71 80 90 97 95 78 73 60 10 17 32 65 79 70 56 59 62 45 38 48 36 34 27 17 7 1 355 333 334 341 347 323 137 126 121 112 111 107 98 101 98 89 86 85 97 104 102 108 111 111 109 104 102 106 108
113 161 196 55 20 28 351 22 87 88 88 91 96 114 116 97 66 18 28 40 41 38 46 55 64 48 33 38 27 19 26 16 357 13 2 338 344 325 117 19 62 85 87 100 109 112 113 105 98 100 101 106 112 110 108 109 107 103 104 110 112 121 137
87 94 126 154 109 47 33 36 30 43 78 79 64 53 52 50 53 44 34 36 44 35 30 20 49 56 37 46 43 26 356 7 357 348 334 337 313 286 2 34 58 91 107 115 126 123 118 118 108 107 112 117 119 117 118 121 119 113 115 122 133 131 125
109 152 170 167 116 100 41 34 35 59 65 84 86 79 61 46 43 34 56 38 42 54 39 34 28 42 27 19 24 17 32 354 303 317 325 333 321 294 304 190 127 133 138 141 139 131 131 129 124 122 126 127 124 124 126 124 120 117 122 122 124 136 141
137 163 136 119 113 107 85 107 72 74 83 85 80 80 89 88 90 91 65 50 36 29 20 17 26 19 14 2 4 8 9 335 341 342 301 268 260 315 194 127 133 137 145 145 139 136 140 142 134 134 133 136 135 141 138 139 131 131 135 132 141 160 167
92 142 146 132 104 103 96 71 60 53 58 89 89 89 90 90 83 71 67 65 72 44 24 19 19 16 14 9 13 8 356 3 348 300 255 249 234 167 181 181 169 153 150 154 152 149 151 149 144 142 141 149 150 155 154 152 142 134 142 146 163 181 183
112 126 104 98 108 110 102 88 72 55 30 73 83 78 80 80 75 83 86 76 70 74 56 30 11 19 23 13 15 11 1 349 351 334 329 346 62 148 169 174 180 173 168 161 150 146 151 149 144 145 137 162 192 187 158 143 139 140 156 163 175 191 190